This demonstration page uses our WeatherBlox Daily Observations layout. Learn more.

Left ArrowRight Arrow

39.51506, -84.39828

Hourly Observations for April 24, 2020

Temp ( °F °C ) Dew Point ( °F °C ) Humidity (%) Winds ( mph kmh ) Pressure ( in mb ) Visibility ( mi km ) Precip ( " mm )
12:15 am 00:15 undefined 54 12.4 54 12.2 99 99 N 5 7 29.65 1004 N/A N/A
12:35 am 00:35 undefined 54 12.4 54 12.2 99 99 N 6 9 29.65 1004 N/A N/A
12:55 am 00:55 Cloudy 54 12.4 54 12.2 99 99 N 8 13 29.65 1004 N/A N/A
1:15 am 01:15 Cloudy 54 12.2 54 12 99 99 N 7 11 29.66 1005 N/A N/A
1:35 am 01:35 Cloudy 54 12 53 11.7 98 98 N 8 13 29.66 1005 N/A N/A
1:55 am 01:55 Cloudy 53 11.8 53 11.5 98 98 N 8 13 29.66 1005 N/A N/A
2:15 am 02:15 Cloudy 53 11.6 52 11.3 98 98 N 9 15 29.66 1005 N/A N/A
2:35 am 02:35 Cloudy 53 11.5 52 11.1 97 97 N 8 13 29.67 1005 N/A N/A
2:55 am 02:55 Cloudy 53 11.4 52 11 97 97 NNE 8 13 29.66 1004 N/A N/A
3:15 am 03:15 Cloudy 52 11.3 52 10.9 97 97 NNE 7 11 29.66 1004 N/A N/A
3:35 am 03:35 Cloudy 52 11.3 52 10.9 97 97 N 6 9 29.66 1004 N/A N/A
3:55 am 03:55 Cloudy 52 11.3 51 10.8 97 97 N 6 9 29.66 1004 N/A N/A
4:15 am 04:15 Cloudy 52 11.3 51 10.7 96 96 NNW 10 17 29.68 1005 N/A N/A
4:35 am 04:35 Cloudy 51 10.5 50 9.9 96 96 N 12 19 29.69 1005 N/A N/A
4:55 am 04:55 Cloudy 50 10.2 49 9.5 95 95 N 9 15 29.69 1005 N/A N/A
5:15 am 05:15 Cloudy 50 10.1 49 9.4 95 95 NNW 9 15 29.70 1006 N/A N/A
5:35 am 05:35 Cloudy 50 9.9 49 9.3 96 96 N 9 15 29.71 1006 N/A N/A
5:55 am 05:55 Cloudy 50 9.8 48 9 95 95 N 12 19 29.71 1006 N/A N/A
6:15 am 06:15 Cloudy 49 9.5 48 8.8 95 95 N 8 13 29.72 1006 N/A N/A
6:35 am 06:35 Cloudy 49 9.3 48 8.7 96 96 N 7 11 29.73 1007 N/A N/A
6:55 am 06:55 Cloudy 49 9.3 48 8.7 96 96 N 7 11 29.74 1007 N/A N/A
7:15 am 07:15 Cloudy 49 9.4 48 8.8 96 96 N 3 6 29.75 1007 N/A N/A
7:35 am 07:35 Cloudy 49 9.4 48 8.7 95 95 NNW 5 7 29.76 1008 N/A N/A
7:55 am 07:55 Cloudy 49 9.5 47 8.6 94 94 NNW 7 11 29.77 1008 N/A N/A
8:15 am 08:15 Cloudy 49 9.6 48 8.7 94 94 NNW 6 9 29.79 1009 N/A N/A
8:35 am 08:35 Cloudy 49 9.5 47 8.5 94 94 N 9 15 29.80 1009 N/A N/A
8:55 am 08:55 undefined 49 9.7 47 8.5 92 92 N 9 15 29.81 1009 N/A N/A
9:15 am 09:15 Cloudy 50 9.8 47 8.4 91 91 N 9 15 29.81 1009 N/A N/A
9:35 am 09:35 Cloudy 49 9.7 47 8.2 90 90 N 12 19 29.82 1010 N/A N/A
9:55 am 09:55 Cloudy 51 10.5 48 8.8 89 89 N 8 13 29.83 1010 N/A N/A
10:15 am 10:15 Cloudy 50 10.2 47 8.4 89 89 N 13 20 29.84 1010 N/A N/A
10:35 am 10:35 Cloudy 50 10.2 47 8.3 88 88 NNE 10 17 29.85 1011 N/A N/A
10:55 am 10:55 undefined 52 10.9 47 8.6 86 86 NE 9 15 29.86 1011 N/A N/A
11:15 am 11:15 Partly Cloudy 54 12.2 49 9.4 83 83 NNE 8 13 29.84 1011 N/A N/A
11:35 am 11:35 Partly Cloudy 56 13.2 50 9.8 80 80 NE 8 13 29.84 1011 N/A N/A
11:55 am 11:55 Sunny 58 14.3 51 10.4 78 78 NNE 6 9 29.84 1010 N/A N/A
12:15 pm 12:15 Partly Cloudy 59 15.2 51 10.5 74 74 N 9 15 29.86 1011 N/A N/A
12:35 pm 12:35 Partly Cloudy 60 15.6 51 10.4 71 71 NNE 8 13 29.86 1011 N/A N/A
12:55 pm 12:55 Sunny 61 15.9 50 10.1 69 69 NNE 14 22 29.85 1011 N/A N/A
1:15 pm 13:15 Partly Cloudy 62 16.5 51 10.8 69 69 NNE 8 13 29.85 1011 N/A N/A
1:35 pm 13:35 Partly Cloudy 63 17 50 10 64 64 NE 6 9 29.85 1011 N/A N/A
1:55 pm 13:55 Partly Cloudy 62 16.8 50 10.1 65 65 N 5 7 29.85 1011 N/A N/A
2:15 pm 14:15 Mostly Cloudy 63 17 50 10 64 64 N 7 11 29.85 1011 N/A N/A
2:35 pm 14:35 Mostly Cloudy 62 16.8 49 9.5 62 62 N 3 6 29.85 1011 N/A N/A
2:55 pm 14:55 Cloudy 63 17 49 9.7 62 62 NE 6 9 29.85 1011 N/A N/A
3:15 pm 15:15 Mostly Cloudy 64 17.8 49 9.3 58 58 ENE 6 9 29.85 1011 N/A N/A
3:35 pm 15:35 Mostly Cloudy 63 17.3 48 8.9 58 58 N N/A 29.85 1011 N/A N/A
3:55 pm 15:55 Partly Cloudy 65 18.4 50 10.1 59 59 NE 3 6 29.85 1011 N/A N/A
4:15 pm 16:15 Cloudy 64 17.5 48 9 58 58 N N/A 29.85 1011 N/A N/A
4:35 pm 16:35 Mostly Cloudy 65 18.2 47 8.5 53 53 N N/A 29.84 1010 N/A N/A
4:55 pm 16:55 Mostly Cloudy 64 18 46 8 52 52 NE 7 11 29.83 1010 N/A N/A
5:15 pm 17:15 Partly Cloudy 64 17.8 47 8.4 54 54 N N/A 29.82 1010 N/A N/A
5:35 pm 17:35 Sunny 64 17.5 46 7.6 52 52 N N/A 29.82 1010 N/A N/A
5:55 pm 17:55 Partly Cloudy 64 17.9 47 8.2 53 53 N N/A 29.83 1010 N/A N/A
6:15 pm 18:15 Cloudy 64 17.8 46 8 53 53 N N/A 29.83 1010 N/A N/A
6:35 pm 18:35 Cloudy 64 18 46 7.7 51 51 N N/A 29.84 1010 N/A N/A
6:55 pm 18:55 Cloudy 65 18.3 46 8 51 51 N N/A 29.84 1010 N/A N/A
7:15 pm 19:15 Cloudy 65 18.4 47 8.1 51 51 N N/A 29.84 1010 N/A N/A
7:35 pm 19:35 Partly Cloudy 64 18 47 8.6 54 54 N N/A 29.84 1010 N/A N/A
7:55 pm 19:55 Sunny 62 16.8 52 10.9 68 68 N N/A 29.84 1011 N/A N/A
8:15 pm 20:15 Sunny 59 15 51 10.6 75 75 N N/A 29.86 1011 N/A N/A
8:35 pm 20:35 Clear 57 13.9 51 10.3 79 79 N N/A 29.87 1011 N/A N/A
8:55 pm 20:55 undefined 55 12.5 51 10.5 88 88 N N/A 29.88 1012 N/A N/A
9:15 pm 21:15 undefined 53 11.8 49 9.5 86 86 N N/A 29.88 1012 N/A N/A
9:35 pm 21:35 undefined 53 11.5 50 10.2 92 92 N N/A 29.90 1012 N/A N/A
9:55 pm 21:55 undefined 52 11 50 10 94 94 N N/A 29.90 1012 N/A N/A
10:15 pm 22:15 undefined 50 9.9 49 9.4 97 97 N N/A 29.90 1012 N/A N/A
10:35 pm 22:35 undefined 50 9.9 48 8.9 94 94 N 6 9 29.90 1012 N/A N/A
10:55 pm 22:55 undefined 49 9.4 47 8.5 94 94 N N/A 29.90 1013 N/A N/A
11:15 pm 23:15 undefined 49 9.5 48 8.8 95 95 N N/A 29.90 1013 N/A N/A
11:35 pm 23:35 undefined 49 9.6 47 8.6 94 94 N N/A 29.90 1013 N/A N/A
11:55 pm 23:55 undefined 49 9.3 47 8.6 95 95 N N/A 29.90 1013 N/A N/A

Powered by AerisWeather